"Pseudo-MPEC" for P20UQIm

Created 2019 Dec 3 18:07:30 UT using Find_Orb

Click here for an explanation of pseudo-MPECs

 
 Astrometry: 
     P20UQIm  C2019 11 27l7$UAstrometry3redacted;uVxxgGEJ^8cucGV@click=#N!65VF52
     P20UQIm  C2019 11 27VAImyX[u43MZsr1jheremNk#o.'Cdq2@sh;v6;TK6i^cEr6%jo7PF52
     P20UQIm  C2019 11 27;:Efor#ACglU-fxI4q_T:wq9ob9d4Pexplanationn)jn,f7NXF5F52

Station data:
(F52) Pan-STARRS 2, Haleakala  (N20.707384 W156.255910)  US/Hawaii. 1.8-m
   Ritchey-Chrétien + CCD.

Orbital elements:  P20UQIm
   Perihelion 2019 Nov 7.407761 +/- 35.9 TT =  9:47:10 (JD 2458794.907761)
Epoch 2019 Nov 27.0 TT = JDT 2458814.5   Earth MOID: 0.0082   AutoNEOCP
M  16.96292765 +/- 17               (J2000 ecliptic)
n   0.86579833 +/- 0.385            Peri.  151.15209 +/- 70
a   1.09024696 +/- 0.323            Node   252.70406 +/- 60
e   0.0866012 +/- 0.244             Incl.    0.81098 +/- 2.4
P   1.14/415.79d           H 29.8   G  0.15   U 12.1  SR
q 0.99583026 +/- 0.184    Q 1.18466366 +/- 44.6
From 3 observations 2019 Nov. 27 (26.0 min); mean residual 0".12
Residuals in arcseconds: 
191127 F52  .08+  .09+    191127 F52  .16-  .17-    191127 F52  .08+  .08+    

Ephemerides (geocentric):
Date (UTC) HH   RA              Dec         delta   r     elong  mag " sig PA
---- -- -- --  -------------   -----------  ------ ------ -----  --- ---- ---
2019 12 03 18  04 21 30.499   +22 57 58.57  .01883 1.0045 176.2 21.6  50d  18
2019 12 03 19  04 21 45.429   +22 56 26.85  .01887 1.0045 176.2 21.6  50d  18
2019 12 03 20  04 22 00.305   +22 54 55.36  .01890 1.0046 176.2 21.6  51d  18
2019 12 03 21  04 22 15.129   +22 53 24.10  .01893 1.0046 176.2 21.6  51d  18
2019 12 03 22  04 22 29.899   +22 51 53.08  .01896 1.0046 176.2 21.6  51d  18
2019 12 03 23  04 22 44.616   +22 50 22.28  .01900 1.0047 176.3 21.6  51d  18
2019 12 04 00  04 22 59.282   +22 48 51.71  .01903 1.0047 176.3 21.6  51d  18
2019 12 04 01  04 23 13.894   +22 47 21.38  .01906 1.0047 176.3 21.6  51d  18
2019 12 04 02  04 23 28.455   +22 45 51.27  .01909 1.0047 176.3 21.6  51d  18
2019 12 04 03  04 23 42.964   +22 44 21.40  .01913 1.0048 176.3 21.6  51d  18
2019 12 04 04  04 23 57.422   +22 42 51.75  .01916 1.0048 176.4 21.6  51d  18
2019 12 04 05  04 24 11.828   +22 41 22.34  .01919 1.0048 176.4 21.6  51d  18
2019 12 04 06  04 24 26.184   +22 39 53.15  .01922 1.0048 176.4 21.6  51d  18
2019 12 04 07  04 24 40.488   +22 38 24.19  .01926 1.0049 176.4 21.6  51d  17
2019 12 04 08  04 24 54.742   +22 36 55.47  .01929 1.0049 176.4 21.6  51d  17
2019 12 04 09  04 25 08.946   +22 35 26.97  .01932 1.0049 176.4 21.6  51d  17
2019 12 04 10  04 25 23.099   +22 33 58.70  .01936 1.0049 176.5 21.6  51d  17
2019 12 04 11  04 25 37.202   +22 32 30.65  .01939 1.0050 176.5 21.6  51d  17
2019 12 04 12  04 25 51.256   +22 31 02.84  .01942 1.0050 176.5 21.6  51d  17
2019 12 04 13  04 26 05.261   +22 29 35.25  .01946 1.0050 176.5 21.6  51d  17
2019 12 04 14  04 26 19.216   +22 28 07.90  .01949 1.0051 176.5 21.6  51d  17
2019 12 04 15  04 26 33.122   +22 26 40.77  .01952 1.0051 176.5 21.6  51d  17
2019 12 04 16  04 26 46.979   +22 25 13.86  .01956 1.0051 176.5 21.6  52d  17
2019 12 04 17  04 27 00.788   +22 23 47.19  .01959 1.0051 176.6 21.6  52d  17
2019 12 04 18  04 27 14.548   +22 22 20.74  .01962 1.0052 176.6 21.6  52d  17
2019 12 04 19  04 27 28.260   +22 20 54.52  .01966 1.0052 176.6 21.6  52d  17
2019 12 04 20  04 27 41.925   +22 19 28.52  .01969 1.0052 176.6 21.6  52d  17
2019 12 04 21  04 27 55.541   +22 18 02.76  .01972 1.0052 176.6 21.7  52d  17
2019 12 04 22  04 28 09.110   +22 16 37.21  .01976 1.0053 176.6 21.7  52d  17
2019 12 04 23  04 28 22.632   +22 15 11.90  .01979 1.0053 176.6 21.7  52d  17
2019 12 05 00  04 28 36.107   +22 13 46.81  .01982 1.0053 176.6 21.7  52d  17
2019 12 05 01  04 28 49.535   +22 12 21.94  .01986 1.0054 176.6 21.7  52d  17
2019 12 05 02  04 29 02.916   +22 10 57.30  .01989 1.0054 176.7 21.7  52d  17
2019 12 05 03  04 29 16.251   +22 09 32.88  .01992 1.0054 176.7 21.7  52d  17
2019 12 05 04  04 29 29.539   +22 08 08.69  .01996 1.0054 176.7 21.7  52d  18
2019 12 05 05  04 29 42.782   +22 06 44.72  .01999 1.0055 176.7 21.7  52d  18
2019 12 05 06  04 29 55.978   +22 05 20.98  .02002 1.0055 176.7 21.7  52d  18
2019 12 05 07  04 30 09.129   +22 03 57.46  .02006 1.0055 176.7 21.7  52d  18
2019 12 05 08  04 30 22.235   +22 02 34.16  .02009 1.0055 176.7 21.7  52d  18
2019 12 05 09  04 30 35.295   +22 01 11.09  .02013 1.0056 176.7 21.7  52d  18
2019 12 05 10  04 30 48.311   +21 59 48.24  .02016 1.0056 176.7 21.7  52d  18
2019 12 05 11  04 31 01.281   +21 58 25.61  .02019 1.0056 176.7 21.7  52d  18
2019 12 05 12  04 31 14.207   +21 57 03.20  .02023 1.0057 176.7 21.7  52d  18
2019 12 05 13  04 31 27.089   +21 55 41.02  .02026 1.0057 176.7 21.7  53d  18
2019 12 05 14  04 31 39.926   +21 54 19.06  .02030 1.0057 176.7 21.7  53d  18
2019 12 05 15  04 31 52.719   +21 52 57.32  .02033 1.0057 176.7 21.7  53d  18
2019 12 05 16  04 32 05.468   +21 51 35.79  .02036 1.0058 176.7 21.7  53d  18
2019 12 05 17  04 32 18.174   +21 50 14.49  .02040 1.0058 176.7 21.7  53d  18